DELTA 1 DEB, 10713

Orbit data source: Space-Track

DELTA 1 DEB, 10713 is space debris in SSO originally from a launch on Thu, 29 Jul 1976 UTC launched from the Air Force Western Test Range (AFWTR). Debris objects in space refer to the collection of defunct objects orbiting the Earth. Examples of debris include non-operational satellites, rocket bodies, and fragments generated from explosions, collisions, or faulty payload assembly.

Loading next visibility...
DELTA 1 DEB details
Identifier
10713, 1976-077AJ
Orbit
SSO
Last TLE update15 hours ago
Origin
Flag of USGSFC (US)
ManufacturerUnknown
MissionSpacecraft
Bus & MotorUnknown
MassUnknown
Launch date (UTC)
1976-07-29 (48 years ago)
Launch vehicleUnknown
Launch site
Air Force Western Test Range (AFWTR)
Object type
Payload
Rocket body
Debris
Shape & HBRUnknown
Radar Cross SectionSmall (<0.1 m²)

Expand to show TLE details & history

TLE from 15 hours ago
0 DELTA 1 DEB
1 10713U 76077AJ  24360.96184545  .00004441  00000-0  13324-1 0  9993
2 10713 101.5242 144.2334 0128922 319.6979 162.0076 13.05097515257280
Epoch: 2024-12-25T23:05Z
Definitive object data (Epoch: 2024-12-25T23:05:03.446Z)
Latitude56.14728°
Longitude-99.37386°
Altitude1,344.942 km
Speed7.146 km/s
True Right ascension22h 47m 21s
True Declination56° 00' 00"
Sunlit
Object was in daylight at TLE epoch
Visualization TLE readout
Latitude2.93571°
Longitude-115.71591°
Altitude1,320.829 km
Speed7.161 km/s
Apparent Right ascension23h 07m 30s
Apparent Declination-18° 13' 05"
Sunlit
Object is in daylight
Visualization observer readout
Local Sidereal Time13:27:08
Azimuth64.433° ENE
Elevation-52.945°
Doppler factor1
Orbital elements
Apogee altitude1,337.854 km
Perigee altitude1,141.434 km
Semi-major axis7,617.781 km
Eccentricity0.0128922
Inclination101.5242°
RAAN144.2334°
Arg. of periapsis319.6979°
True anomaly162.45704°
Mean anomaly162.0076°
Eccentric anomaly162.233°
Mean motion3.26438 °/min
BSTAR0.013324
Orbital period110.28 mins
Loading maneuver chart data...
Loading historical data...
Loading historical data...
Loading historical data...
Loading historical data...
Loading historical data...
Loading historical data...
Loading historical data...

DELTA 1 DEB Visibility forecast

Observer location: undefined°, undefined

Span
Click to sort rows by Start time (UTC) header in descending order
Start Az.
Max El. time (UTC)
Max El. Az.
Max El.
End time (UTC)
End Az.
10 mins2024-12-26 21:11:21.762Z52.209° ENE2024-12-26 21:16:21.762Z94.656° ESE18.677°2024-12-26 21:21:21.762Z135.678° SSE
13 mins2024-12-26 22:59:21.762Z14.258° NNE2024-12-26 23:05:21.762Z277.844° WNW44.662°2024-12-26 23:12:21.762Z204.158° SW
8 mins2024-12-27 00:49:21.762Z335.996° NNW2024-12-27 00:52:21.762Z309.807° NW17.472°2024-12-27 00:57:21.762Z269.298° W
8 mins2024-12-27 07:46:21.762Z84.234° E2024-12-27 07:49:21.762Z56.931° ENE17.54°2024-12-27 07:54:21.762Z13.44° NNE
13 mins2024-12-27 09:31:21.762Z159.776° S2024-12-27 09:37:21.762Z11.913° NNE44.937°2024-12-27 09:44:21.762Z343.474° N
6 mins2024-12-27 11:24:21.762Z249.047° W2024-12-27 11:26:21.762Z267.522° W15.127°2024-12-27 11:30:21.762Z301.978° NW
|